Location: Clanezzo
(45.7500°N, 9.6000°E)
Time: 00:25:27
(UTC+00:00)

Gbstr 26 Del rocket - Pass Details

Date: 12 May 2021
Orbit: 493 x 1263 km, 51.8° (Epoch: 23 June)

Event Time Altitude Azimuth Distance (km) Brightness Sun altitude
Rises 22:05:53 0° 297° (WNW) 4,089 7.9 -23.8°
Reaches altitude 10° 22:08:53 10° 298° (WNW) 3,044 7.2 -24.0°
Maximum altitude 22:16:17 87° 28° (NNE) 1,009 4.0 -24.4°
Enters shadow 22:18:37 43° 115° (ESE) 1,314 4.3 -24.5°
